Date,TemperatureHighF,TemperatureAvgF,TemperatureLowF,DewpointHighF,DewpointAvgF,DewpointLowF,HumidityHigh,HumidityAvg,HumidityLow,PressureMaxIn,PressureMinIn,WindSpeedMaxMPH,WindSpeedAvgMPH,GustSpeedMaxMPH,PrecipitationSumIn
2013-4-1,74,63,55,56,47,37,96,62,28,30.01,29.89,14,2,15,0.03
2013-4-2,65,53,37,42,36,28,88,56,30,30.22,30.01,11,1,12,0.00
2013-4-3,62,53,45,35,26,19,59,36,27,30.33,30.17,12,2,12,0.00
2013-4-4,47,42,38,38,34,25,95,77,44,30.34,30.02,12,2,17,0.82
2013-4-5,64,48,37,51,42,36,95,80,48,30.10,29.98,10,2,11,0.01
2013-4-6,68,53,35,44,38,33,95,61,34,30.29,30.10,11,1,12,0.00
2013-4-7,72,57,38,52,44,34,90,64,40,30.33,30.16,11,2,17,0.00
2013-4-8,78,66,52,59,54,50,94,67,44,30.23,30.11,11,2,13,0.00
2013-4-9,82,70,53,63,57,50,95,67,45,30.25,30.13,11,2,11,0.00
2013-4-10,85,73,59,64,60,56,93,64,44,30.17,30.00,11,2,14,0.00
2013-4-11,81,70,61,67,62,57,94,76,56,30.03,29.81,15,3,15,0.00
2013-4-12,81,71,57,68,59,41,95,70,28,29.87,29.67,18,4,18,0.37
2013-4-13,75,60,43,52,44,39,93,59,28,30.08,29.87,13,1,13,0.00
2013-4-14,76,61,43,55,47,41,94,64,35,30.15,30.04,11,2,12,0.00
2013-4-15,73,64,57,62,58,54,93,80,66,30.24,30.03,9,1,11,0.01
2013-4-16,77,66,56,66,60,55,96,81,57,30.34,30.23,8,1,8,0.00
2013-4-17,85,71,57,68,61,55,95,74,46,30.31,30.14,12,2,12,0.00
2013-4-18,80,70,62,65,61,59,92,74,54,30.21,30.04,15,3,16,0.00
2013-4-19,80,68,55,69,63,50,94,85,64,30.05,29.79,20,4,24,0.47
2013-4-20,64,54,42,51,40,32,92,63,33,30.32,29.94,13,2,13,0.00
2013-4-21,64,51,37,47,41,36,95,70,46,30.51,30.32,13,2,14,0.00
2013-4-22,64,51,39,41,36,30,87,61,29,30.48,30.28,13,2,16,0.00
2013-4-23,66,56,47,56,48,40,92,76,63,30.33,30.17,8,1,10,0.00
2013-4-24,76,62,51,62,55,50,96,78,52,30.22,30.06,15,2,17,0.00
2013-4-25,71,61,45,58,47,36,91,64,31,30.32,30.09,11,2,14,0.00
2013-4-26,72,58,40,49,41,34,91,55,31,30.49,30.31,10,1,12,0.00
2013-4-27,68,58,53,56,51,46,96,80,52,30.42,30.30,6,0,7,0.21
2013-4-28,61,56,54,60,55,53,97,96,92,30.31,30.12,9,1,10,1.73
2013-4-29,74,63,57,65,59,56,98,90,68,30.12,29.99,7,1,7,0.21
2013-4-30,72,63,56,64,59,54,98,90,70,30.21,30.03,10,1,10,0.00